Regional Weather Roundup
Issued by NWS

Home | Current Version | Previous Version | Graphics & Text | Print | Product List | Glossary On
Versions: 1 2 3 4 5 6 7 8 9 10 11 12 13 14 15 16 17 18 19 20 21 22 23 24 25 26 27 28 29 30 31 32 33 34 35 36 37 38 39 40 41 42 43 44 45 46 47 48 49 50
000
ASUS43 KMPX 031910
RWRMN
WEATHER ROUNDUP FOR MINNESOTA
NATIONAL WEATHER SERVICE TWIN CITIES/CHANHASSEN MN
200 PM CDT FRI JUL 03 2015


NOTE: "FAIR" INDICATES FEW OR NO CLOUDS BELOW 12,000 FEET WITH NO
SIGNIFICANT WEATHER AND/OR OBSTRUCTIONS TO VISIBILITY. N/A MEANS
CURRENT SKY AND/OR WEATHER CONDITIONS ARE NOT AVAILABLE.

MNZ060>063-068>070-032000-
   Twin Cities Metro

CITY           SKY/WX    TMP DP  RH WIND       PRES   REMARKS
TWIN CITIES    CLOUDY    77  55  46 SW8       29.95F
ST PAUL        SUNNY     77  58  51 SW9       29.94F
CRYSTAL        SUNNY     79  56  45 SW8G17    29.93F
BLAINE         SUNNY     79  57  47 SW7       29.94F
LAKEVILLE      SUNNY     73  55  53 W7        29.96F
EDEN PRAIRIE   SUNNY     77  58  51 SW13      29.95F
SOUTH ST PAUL  SUNNY     76  54  44 SW7       29.95S
LAKE ELMO      FAIR      77  59  53 SW9       29.96S
$$
MNZ001>005-007-008-013>017-022>024-027-028-032000-
   Northwest Minnesota

CITY           SKY/WX    TMP DP  RH WIND       PRES   REMARKS
BEMIDJI        MOSUNNY   78  60  53 NW10      29.93S HAZE
HALLOCK        SUNNY     79  63  57 NW6       29.93S HAZE
ROSEAU         SUNNY     79  64  61 N7        29.92F
WARROAD        SUNNY     79  61  53 NW9       29.92F
THIEF RVR FALL MOSUNNY   75  63  64 NW6       29.94S
CROOKSTON      SUNNY     79  64  61 NW8       29.93F HAZE
FOSSTON        MOSUNNY   79  63  57 CALM      29.94F HAZE
DETROIT LAKES    N/A     77  61  57 N5        29.96S HAZE
MOORHEAD       SUNNY     79  64  61 NE8       29.93F HAZE
PARK RAPIDS    CLOUDY    79  63  57 VRB5      29.93F HAZE
MAHNOMEN       FAIR      77  62  58 N9        29.94S HAZE
$$
MNZ006-009>011-018-025>026-032000-
   North Central Minnesota

CITY           SKY/WX    TMP DP  RH WIND       PRES   REMARKS
BAUDETTE       SUNNY     77  55  46 N14G22    29.92R
FLAG ISLAND    MOSUNNY   73  54  49 N14       29.91S
INTL FALLS     MOSUNNY   77  57  50 N12G21    29.89R
WASKISH        SUNNY     79  57  47 NW8       29.91S
BIG FORK       SUNNY     79  55  44 NW6       29.90S HAZE
LONGVILLE      SUNNY     77  64  65 NW8       29.92S HAZE
GRAND RAPIDS   MOSUNNY   79  61  53 NW12      29.91S
CRANE LAKE     PTSUNNY   73  61  64 N6        29.89R
ORR            MOSUNNY   77  55  47 NW6       29.86S
COOK           SUNNY     75  57  53 NW6       29.89S
WALKER         FAIR      77  62  61 NW6       29.92S HAZE
$$
MNZ012-019>021-037-032000-
   Northeast Minnesota

CITY           SKY/WX    TMP DP  RH WIND       PRES   REMARKS
DULUTH         MOSUNNY   79  63  57 W8        29.88F HAZE
ELY            SUNNY     75  55  50 NW5       29.87S
HIBBING        PTSUNNY   78  59  51 NW14      29.89R
DULUTH HARBOR  MOSUNNY   81  66  61 CALM      29.86F
TWO HARBORS    MOSUNNY   81  64  57 NW6       29.84F
SILVER BAY     MOSUNNY   81  61  50 W3        29.83S
GRAND MARAIS     N/A     53  48  83 W12       29.80S
G MARAIS ARPRT SUNNY     75  55  50 W9G18     29.86S
$$
MNZ029>031-032-039>041-046>048-054>057-064-032000-
   West Central Minnesota

CITY           SKY/WX    TMP DP  RH WIND       PRES   REMARKS
FERGUS FALLS   MOSUNNY   79  66  65 NW9       29.93S HAZE
WHEATON        MOSUNNY   75  66  73 NW6       29.96S HAZE
MORRIS         MOSUNNY   81  66  61 NW7       29.94S
ALEXANDRIA     MOSUNNY   76  65  68 W8        29.96S
ELBOW LAKE     PTSUNNY   77  67  72 CALM      29.94F HAZE
WADENA         MOSUNNY   77  63  61 N8        29.93S HAZE
GLENWOOD       MOSUNNY   79  66  65 W8        29.96S
APPLETON       MOSUNNY   82  64  54 W3        29.94F
BENSON         MOSUNNY   79  63  57 W3        29.94F
ORTONVILLE     MOSUNNY   81  63  54 NW6       29.94F
MADISON        MOSUNNY   81  63  54 CALM      29.95S
WILLMAR        FAIR      77  61  57 SW3       29.97S
$$
MNZ033>034-036-042>043-049>051-058-059-032000-
   Central Minnesota

CITY           SKY/WX    TMP DP  RH WIND       PRES   REMARKS
ST CLOUD       PTSUNNY   79  62  56 SW9       29.93S
SAUK CENTRE    FAIR      77  66  68 W8        29.94F
PAYNESVILLE    MOSUNNY   75  60  59 S6        29.96S
AITKIN         MOSUNNY   77  66  69 CALM      29.90S HAZE
PINE RIVER       N/A     79  63  57 NW9       29.95F HAZE
BRAINERD       CLOUDY    78  64  61 N8        29.92F HAZE
STAPLES        PTSUNNY   79  61  53 N3        29.93S HAZE
LONG PRAIRIE   PTSUNNY   77  64  65 SW7       29.94F
LITTLE FALLS   MOSUNNY   77  63  61 W8        29.92F
LITCHFIELD     MOSUNNY   79  55  44 W6        29.96S
BUFFALO        MOSUNNY   77  56  48 SW8       29.96S
MAPLE LAKE     MOSUNNY   77  61  57 W8        29.95S
$$
MNZ037-044-045-052-053-032000-
   East Central Minnesota

CITY           SKY/WX    TMP DP  RH WIND       PRES   REMARKS
PRINCETON      PTSUNNY   79  63  57 SW7       29.93S
MORA           MOSUNNY   75  61  60 SW7       29.93S
CAMBRIDGE      SUNNY     79  63  57 CALM      29.91F
RUSH CITY      MOSUNNY   76  62  61 SW6       29.92S
MOOSE LAKE     SUNNY     77  64  65 W7        29.88S HAZE
HINCKLEY       CLOUDY    77  64  65 SW8       29.91S
CLOQUET        SUNNY     79  61  53 W8        29.89F HAZE
MCGREGOR       SUNNY     77  64  65 NW7       29.91S
$$
MNZ071>073-080-081-089-090-097-098-032000-
   Southwest Minnesota

CITY           SKY/WX    TMP DP  RH WIND       PRES   REMARKS
MONTEVIDEO     MOSUNNY   82  64  54 CALM      29.96S
GRANITE FALLS  SUNNY     77  60  55 CALM      29.97F
CANBY          MOSUNNY   79  64  60 NW5       29.97S
MARSHALL       SUNNY     79  61  53 CALM      29.96S
REDWOOD FALLS  SUNNY     78  54  43 W6        29.96F
OLIVIA         SUNNY     73  54  49 SW7       29.96S
PIPESTONE      SUNNY     75  61  60 NW6       30.00F
WINDOM         SUNNY     75  55  50 CALM      29.99F
WORTHINGTON    SUNNY     73  55  53 NW3       30.00F
JACKSON        SUNNY     77  55  47 W6        30.00F
TRACY          SUNNY     78  56  47 SW6       29.98F
SLAYTON        SUNNY     76  53  44 CALM      30.00F
$$
MNZ065>067-074>077-082>085-091>093-032000-
   South Central Minnesota

CITY           SKY/WX    TMP DP  RH WIND       PRES   REMARKS
MANKATO        SUNNY     75  52  43 W3        29.97F
NEW ULM        SUNNY     75  57  53 SW5       29.97F
ST JAMES       SUNNY     77  57  50 W3        29.98F
FAIRMONT       SUNNY     75  41  29 CALM      29.98F
GLENCOE        MOSUNNY   78  60  54 SW5       29.95F
FARIBAULT      SUNNY     75  55  50 W6        29.98F
OWATONNA       SUNNY     75  52  43 W7        29.98F
WASECA         SUNNY     73  54  49 W5        30.00F
ALBERT LEA     SUNNY     75  54  46 W5        29.99F
$$
MNZ078>079-086>088-094>096-032000-
   Southeast Minnesota

CITY           SKY/WX    TMP DP  RH WIND       PRES   REMARKS
ROCHESTER      SUNNY     75  58  55 NW3       29.99F
RED WING       SUNNY     79  54  41 W7        29.94F
STANTON        SUNNY     75  54  46 SW7       29.95F
DODGE CENTER   SUNNY     73  57  56 W6        29.99F
WINONA         PTSUNNY   75  55  50 W5        29.96F
AUSTIN         SUNNY     75  54  46 NW7       29.99F
PRESTON        MOSUNNY   72  55  53 CALM      29.99F
$$
ABBREVIATIONS USED IN REMARKS
   TC - TEMPERATURES IN CELSIUS
  WCI - WIND CHILL INDEX
   HX - HEAT INDEX
  VSB - VISIBILITY
$$



USA.gov is the U.S. government's official web portal to all federal, state and local government web resources and services.